Flag for U.S.A. Weather past 2 weeks in Elizabeth, New Jersey, U.S.A.

Now
73 °F

Passing clouds.


Feels Like: 77 °F
Forecast: 68 / 86 °F
Wind: 6 mph from Northwest

Location: Newark International Airport

Current Time: Jul 4, 2015 at 10:53:58 PM

Latest Report: Jul 4, 2015 at 9:51 PM


Visibility: 10 mi

Pressure: 29.99 "Hg

Humidity: 55%

Dew point: 56 °F

Location of ElizabethLocation

Historic Weather in Elizabeth — Graph

°F

Elizabeth temperature yesterday

Maximum temperature yesterday: 83 °F (at 2:51 PM)
Minimum temperature yesterday: 65 °F (at 4:51 AM)
Average temperature yesterday: 74 °F

Past Weeks' High & Low Weather Summary

 TemperatureHumidityPressure
High92 °F (Jun 23, 4:51 PM)100% (Jun 21, 3:58 AM)30.12 "Hg (Jun 21, 3:58 AM)
Low61 °F (Jun 27, 8:51 PM)31% (Jun 25, 12:51 PM)29.65 "Hg (Jun 28, 5:51 AM)
Average75 °F64%29.91 "Hg
* Reported Jun 19 8:51 PM — Jul 4 8:51 PM, Elizabeth, Weather by CustomWeather, © 2015

Note: Actual official high and low records may vary slightly from our data, if they occured in-between our weather recording intervals... More about our weather records

Advertising

Elizabeth weather history for previous 24 hours

 ConditionsComfort  
Time TempWeatherWind HumidityBarometerVisibility
8:51 PM
Sat, Jul 4
75 °FPartly sunny.No wind48%29.97 "Hg10 mi
7:51 PM75 °FMostly cloudy.No wind52%29.96 "Hg10 mi
6:51 PM77 °FBroken clouds.No wind50%29.94 "Hg10 mi
5:51 PM77 °FBroken clouds.No wind50%29.93 "Hg10 mi
4:51 PM77 °FBroken clouds.9 mph54%29.93 "Hg10 mi
3:51 PM75 °FBroken clouds.9 mph52%29.94 "Hg10 mi
2:51 PM73 °FLight rain. Broken clouds.10 mph74%29.95 "Hg10 mi
1:51 PM70 °FLight rain. More clouds than sun.10 mph79%29.96 "Hg10 mi
12:51 PM70 °FLight rain. More clouds than sun.14 mph81%29.96 "Hg10 mi
11:51 AM74 °FOvercast.13 mph64%29.95 "Hg10 mi
10:51 AM73 °FOvercast.7 mph64%29.95 "Hg10 mi
9:51 AM73 °FMostly cloudy.6 mph59%29.94 "Hg10 mi
8:51 AM73 °FMostly cloudy.7 mph59%29.93 "Hg10 mi
7:51 AM72 °FOvercast.5 mph61%29.94 "Hg10 mi
6:51 AM71 °FMore clouds than sun.5 mph68%29.94 "Hg10 mi
5:51 AM71 °FLight rain. Mostly cloudy.5 mph71%29.94 "Hg10 mi
4:51 AM71 °FLight rain. Mostly cloudy.3 mph73%29.95 "Hg10 mi
3:51 AM70 °FLight rain. Mostly cloudy.No wind76%29.96 "Hg10 mi
2:51 AM71 °FLight rain. Mostly cloudy.6 mph73%29.96 "Hg10 mi
1:51 AM72 °FMostly cloudy.3 mph68%29.97 "Hg10 mi
12:51 AM72 °FMostly cloudy.5 mph66%29.97 "Hg10 mi
11:51 PM
Fri, Jul 3
73 °FMostly cloudy.7 mph66%29.96 "Hg10 mi
10:51 PM73 °FOvercast.7 mph64%29.98 "Hg10 mi
Weather by CustomWeather, © 2015

See weather overviewHow to use our weather pages